Location: Mount Cross
(36.6390°N, 79.4878°W)
Time: 08:44:55
(UTC+00:00)

Tiros 1 - Pass Details

Date: 07 April 2023
Orbit: 627 x 661 km, 48.4° (Epoch: 02 June)

Event Time Altitude Azimuth Distance (km) Brightness Sun altitude
Exits shadow 08:48:51 14° 326° (NW) 1,822 9.4 -24.7°
Maximum altitude 08:51:20 20° 3° (N) 1,529 9.4 -24.3°
Drops below altitude 10° 08:54:50 10° 50° (NE) 2,076 10.8 -23.7°
Sets 08:57:46 0° 68° (ENE) 2,989 12.0 -23.2°
